Time,TemperatureF,DewpointF,PressureIn,WindDirection,WindDirectionDegrees,WindSpeedMPH,WindSpeedGustMPH,Humidity,HourlyPrecipIn,Conditions,Clouds,dailyrainin,SolarRadiationWatts/m^2,SoftwareType,DateUTC
2013-01-03 00:03:00,66.8,64.4,30.05,South,173,0.0,0.0,92,0.00,CLR,,0.00,0.0,WeatherDisplay:10.37,2013-01-03 05:03:00,
2013-01-03 00:08:00,66.8,64.4,30.05,South,173,0.0,0.0,92,0.00,CLR,,0.00,0.0,WeatherDisplay:10.37,2013-01-03 05:08:00,
2013-01-03 00:13:00,66.7,64.3,30.05,South,173,0.0,0.0,92,0.00,CLR,,0.00,0.0,WeatherDisplay:10.37,2013-01-03 05:13:00,
2013-01-03 00:18:00,66.6,64.2,30.04,South,173,0.0,0.0,92,0.00,CLR,,0.00,0.0,WeatherDisplay:10.37,2013-01-03 05:18:00,
2013-01-03 00:24:00,66.5,64.4,30.04,South,173,0.0,0.0,93,0.00,CLR,,0.00,0.0,WeatherDisplay:10.37,2013-01-03 05:24:00,
2013-01-03 00:29:00,66.5,64.4,30.04,South,173,0.0,0.0,93,0.00,CLR,,0.00,0.0,WeatherDisplay:10.37,2013-01-03 05:29:00,
2013-01-03 00:34:00,66.4,64.0,30.04,South,173,0.0,0.0,92,0.00,CLR,,0.00,0.0,WeatherDisplay:10.37,2013-01-03 05:34:00,
2013-01-03 00:39:00,66.4,64.3,30.04,South,173,0.0,0.0,93,0.00,CLR,,0.00,0.0,WeatherDisplay:10.37,2013-01-03 05:39:00,
2013-01-03 00:44:00,66.4,64.3,30.05,South,173,0.0,0.0,93,0.00,CLR,,0.00,0.0,WeatherDisplay:10.37,2013-01-03 05:44:00,
2013-01-03 00:49:00,66.6,64.5,30.05,South,173,0.0,0.0,93,0.00,CLR,,0.00,0.0,WeatherDisplay:10.37,2013-01-03 05:49:00,
2013-01-03 00:54:00,66.6,64.5,30.05,South,173,0.0,0.0,93,0.00,CLR,,0.00,0.0,WeatherDisplay:10.37,2013-01-03 05:54:00,
2013-01-03 00:59:00,66.7,64.6,30.04,South,173,0.0,0.0,93,0.00,CLR,,0.00,0.0,WeatherDisplay:10.37,2013-01-03 05:59:00,
2013-01-03 01:04:00,66.7,64.6,30.04,South,173,0.0,0.0,93,0.00,CLR,,0.00,0.0,WeatherDisplay:10.37,2013-01-03 06:04:00,
2013-01-03 01:09:00,66.8,64.7,30.05,South,173,0.0,0.0,93,0.00,CLR,,0.00,0.0,WeatherDisplay:10.37,2013-01-03 06:09:00,
2013-01-03 01:14:00,66.8,64.7,30.05,South,173,0.0,0.0,93,0.00,CLR,,0.00,0.0,WeatherDisplay:10.37,2013-01-03 06:14:00,
2013-01-03 01:19:00,66.8,64.7,30.05,South,173,0.0,0.0,93,0.00,CLR,,0.00,0.0,WeatherDisplay:10.37,2013-01-03 06:19:00,
2013-01-03 01:24:00,66.8,64.7,30.05,South,173,0.0,0.0,93,0.00,CLR,,0.00,0.0,WeatherDisplay:10.37,2013-01-03 06:24:00,
2013-01-03 01:29:00,66.8,64.7,30.05,South,173,0.0,0.0,93,0.00,CLR,,0.00,0.0,WeatherDisplay:10.37,2013-01-03 06:29:00,
2013-01-03 01:35:00,66.8,64.7,30.05,South,173,0.0,0.0,93,0.00,CLR,,0.00,0.0,WeatherDisplay:10.37,2013-01-03 06:35:00,
2013-01-03 01:40:00,66.8,64.7,30.05,South,173,0.0,0.0,93,0.00,CLR,,0.00,0.0,WeatherDisplay:10.37,2013-01-03 06:40:00,
2013-01-03 01:45:00,66.9,64.8,30.05,SSW,200,0.0,0.0,93,0.00,CLR,,0.00,0.0,WeatherDisplay:10.37,2013-01-03 06:45:00,
2013-01-03 01:50:00,66.9,64.8,30.05,SSW,203,0.0,0.0,93,0.00,CLR,,0.00,0.0,WeatherDisplay:10.37,2013-01-03 06:50:00,
2013-01-03 01:55:00,66.9,64.8,30.05,SSW,203,0.0,0.0,93,0.00,CLR,,0.00,0.0,WeatherDisplay:10.37,2013-01-03 06:55:00,
2013-01-03 02:00:00,67.0,64.9,30.04,SSW,207,0.0,0.0,93,0.00,CLR,,0.00,0.0,WeatherDisplay:10.37,2013-01-03 07:00:00,
2013-01-03 02:05:00,67.0,64.6,30.04,SSW,207,0.0,0.0,92,0.00,CLR,,0.00,0.0,WeatherDisplay:10.37,2013-01-03 07:05:00,
2013-01-03 02:11:00,67.0,64.6,30.04,SSW,207,0.0,0.0,92,0.00,CLR,,0.00,0.0,WeatherDisplay:10.37,2013-01-03 07:11:00,
2013-01-03 02:16:00,66.9,64.5,30.04,WSW,246,0.2,2.3,92,0.00,CLR,,0.00,0.0,WeatherDisplay:10.37,2013-01-03 07:16:00,
2013-01-03 02:21:00,66.8,64.4,30.04,WSW,246,0.0,0.0,92,0.00,CLR,,0.00,0.0,WeatherDisplay:10.37,2013-01-03 07:21:00,
2013-01-03 02:26:00,66.7,64.0,30.03,WSW,246,0.0,0.0,91,0.00,CLR,,0.00,0.0,WeatherDisplay:10.37,2013-01-03 07:26:00,
2013-01-03 02:31:00,66.6,64.2,30.03,WSW,248,0.4,2.0,92,0.00,CLR,,0.00,0.0,WeatherDisplay:10.37,2013-01-03 07:31:00,
2013-01-03 02:36:00,66.5,64.1,30.03,WSW,248,0.0,0.0,92,0.00,CLR,,0.00,0.0,WeatherDisplay:10.37,2013-01-03 07:36:00,
2013-01-03 02:41:00,66.4,63.7,30.03,WSW,248,0.1,1.0,91,0.00,CLR,,0.00,0.0,WeatherDisplay:10.37,2013-01-03 07:41:00,
2013-01-03 02:46:00,66.3,63.6,30.03,West,261,0.3,3.0,91,0.00,CLR,,0.00,0.0,WeatherDisplay:10.37,2013-01-03 07:46:00,
2013-01-03 02:57:00,66.1,63.4,30.03,West,261,0.0,0.0,91,0.00,CLR,,0.00,0.0,WeatherDisplay:10.37,2013-01-03 07:57:00,
2013-01-03 03:02:00,66.0,63.3,30.03,West,261,0.0,0.0,91,0.00,CLR,,0.00,0.0,WeatherDisplay:10.37,2013-01-03 08:02:00,
2013-01-03 03:07:00,65.9,63.5,30.04,West,261,0.0,0.0,92,0.00,CLR,,0.00,0.0,WeatherDisplay:10.37,2013-01-03 08:07:00,
2013-01-03 03:12:00,65.9,63.5,30.04,SSW,202,0.0,1.1,92,0.00,CLR,,0.00,0.0,WeatherDisplay:10.37,2013-01-03 08:12:00,
2013-01-03 03:18:00,65.8,63.4,30.04,SSW,202,0.0,0.0,92,0.00,CLR,,0.00,0.0,WeatherDisplay:10.37,2013-01-03 08:18:00,
2013-01-03 03:23:00,65.8,63.4,30.04,SSW,202,0.0,0.0,92,0.00,CLR,,0.00,0.0,WeatherDisplay:10.37,2013-01-03 08:23:00,
2013-01-03 03:28:00,65.7,63.3,30.04,SSW,202,0.0,0.0,92,0.00,CLR,,0.00,0.0,WeatherDisplay:10.37,2013-01-03 08:28:00,
2013-01-03 03:33:00,65.6,63.2,30.04,SSW,202,0.0,0.0,92,0.00,CLR,,0.00,0.0,WeatherDisplay:10.37,2013-01-03 08:33:00,
2013-01-03 03:44:00,65.5,63.1,30.04,SSW,202,0.0,0.0,92,0.00,CLR,,0.00,0.0,WeatherDisplay:10.37,2013-01-03 08:44:00,
2013-01-03 03:49:00,65.4,63.0,30.04,SSW,202,0.0,0.0,92,0.00,CLR,,0.00,0.0,WeatherDisplay:10.37,2013-01-03 08:49:00,
2013-01-03 03:54:00,65.4,63.3,30.04,SSW,202,0.0,0.0,93,0.00,CLR,,0.00,0.0,WeatherDisplay:10.37,2013-01-03 08:54:00,
2013-01-03 03:59:00,65.4,63.3,30.04,SSW,202,0.0,0.0,93,0.00,CLR,,0.00,0.0,WeatherDisplay:10.37,2013-01-03 08:59:00,
2013-01-03 04:04:00,65.3,63.2,30.04,SSW,202,0.0,0.0,93,0.00,CLR,,0.00,0.0,WeatherDisplay:10.37,2013-01-03 09:04:00,
2013-01-03 04:09:00,65.3,63.2,30.04,SSW,202,0.0,0.0,93,0.00,CLR,,0.00,0.0,WeatherDisplay:10.37,2013-01-03 09:09:00,
2013-01-03 04:14:00,65.3,63.2,30.04,SSW,202,0.0,0.0,93,0.00,CLR,,0.00,0.0,WeatherDisplay:10.37,2013-01-03 09:14:00,
2013-01-03 04:25:00,65.2,63.1,30.04,SSW,203,0.0,0.0,93,0.00,CLR,,0.00,0.0,WeatherDisplay:10.37,2013-01-03 09:25:00,
2013-01-03 04:30:00,65.1,63.0,30.04,SSW,203,0.0,0.0,93,0.00,CLR,,0.00,0.0,WeatherDisplay:10.37,2013-01-03 09:30:00,
2013-01-03 04:35:00,65.0,62.9,30.03,SSW,203,0.0,0.0,93,0.00,CLR,,0.00,0.0,WeatherDisplay:10.37,2013-01-03 09:35:00,
2013-01-03 04:40:00,64.9,62.8,30.03,SSW,203,0.0,0.0,93,0.00,CLR,,0.00,0.0,WeatherDisplay:10.37,2013-01-03 09:40:00,
2013-01-03 04:45:00,64.9,62.8,30.03,SSW,203,0.0,0.0,93,0.00,CLR,,0.00,0.0,WeatherDisplay:10.37,2013-01-03 09:45:00,
2013-01-03 04:50:00,64.8,62.7,30.03,SSW,203,0.0,0.0,93,0.00,CLR,,0.00,0.0,WeatherDisplay:10.37,2013-01-03 09:50:00,
2013-01-03 04:55:00,64.7,62.6,30.03,SSW,203,0.0,0.0,93,0.00,CLR,,0.00,0.0,WeatherDisplay:10.37,2013-01-03 09:55:00,
2013-01-03 05:00:00,64.6,62.5,30.04,SSW,203,0.0,0.0,93,0.00,CLR,,0.00,0.0,WeatherDisplay:10.37,2013-01-03 10:00:00,
2013-01-03 05:05:00,64.6,62.5,30.04,SSW,204,0.0,0.0,93,0.00,CLR,,0.00,0.0,WeatherDisplay:10.37,2013-01-03 10:05:00,
2013-01-03 05:10:00,64.5,62.4,30.03,SSW,204,0.0,0.0,93,0.00,CLR,,0.00,0.0,WeatherDisplay:10.37,2013-01-03 10:10:00,
2013-01-03 05:16:00,64.4,62.3,30.04,SSW,204,0.0,0.0,93,0.00,CLR,,0.00,0.0,WeatherDisplay:10.37,2013-01-03 10:16:00,
2013-01-03 05:21:00,64.4,62.6,30.04,West,269,0.0,3.5,94,0.00,CLR,,0.00,0.0,WeatherDisplay:10.37,2013-01-03 10:21:00,
2013-01-03 05:26:00,64.4,62.6,30.04,West,269,0.0,0.0,94,0.00,CLR,,0.00,0.0,WeatherDisplay:10.37,2013-01-03 10:26:00,
2013-01-03 05:31:00,64.4,62.6,30.04,West,272,0.0,0.0,94,0.00,CLR,,0.00,0.0,WeatherDisplay:10.37,2013-01-03 10:31:00,
2013-01-03 05:36:00,64.3,62.5,30.04,West,273,0.0,0.0,94,0.00,CLR,,0.00,0.0,WeatherDisplay:10.37,2013-01-03 10:36:00,
2013-01-03 05:41:00,64.3,62.5,30.04,West,271,0.0,0.0,94,0.00,CLR,,0.00,0.0,WeatherDisplay:10.37,2013-01-03 10:41:00,
2013-01-03 05:46:00,64.2,62.4,30.04,West,271,0.0,0.0,94,0.00,CLR,,0.00,0.0,WeatherDisplay:10.37,2013-01-03 10:46:00,
2013-01-03 05:51:00,64.1,62.3,30.04,West,271,0.0,0.0,94,0.00,CLR,,0.00,0.0,WeatherDisplay:10.37,2013-01-03 10:51:00,
2013-01-03 05:56:00,64.1,62.3,30.04,West,271,0.0,0.0,94,0.00,CLR,,0.00,0.0,WeatherDisplay:10.37,2013-01-03 10:56:00,
2013-01-03 06:01:00,64.1,62.3,30.05,West,271,0.1,0.0,94,0.00,CLR,,0.00,0.0,WeatherDisplay:10.37,2013-01-03 11:01:00,
2013-01-03 06:06:00,64.0,62.2,30.05,West,278,0.0,0.0,94,0.00,CLR,,0.00,0.0,WeatherDisplay:10.37,2013-01-03 11:06:00,
2013-01-03 06:11:00,64.0,62.2,30.05,West,278,0.0,0.0,94,0.00,CLR,,0.00,0.0,WeatherDisplay:10.37,2013-01-03 11:11:00,
2013-01-03 06:16:00,64.0,62.2,30.05,West,278,0.0,0.0,94,0.00,CLR,,0.00,0.0,WeatherDisplay:10.37,2013-01-03 11:16:00,
2013-01-03 06:21:00,63.9,62.1,30.05,West,278,0.0,1.1,94,0.00,CLR,,0.00,0.0,WeatherDisplay:10.37,2013-01-03 11:21:00,
2013-01-03 06:27:00,63.8,62.0,30.05,West,278,0.0,1.1,94,0.00,CLR,,0.00,0.0,WeatherDisplay:10.37,2013-01-03 11:27:00,
2013-01-03 06:32:00,63.7,61.9,30.06,West,278,0.0,0.0,94,0.00,CLR,,0.00,0.0,WeatherDisplay:10.37,2013-01-03 11:32:00,
2013-01-03 06:37:00,63.6,61.8,30.06,West,278,0.0,0.0,94,0.00,CLR,,0.00,0.0,WeatherDisplay:10.37,2013-01-03 11:37:00,
2013-01-03 06:42:00,63.7,62.2,30.06,South,184,1.4,3.5,95,0.00,CLR,,0.00,0.0,WeatherDisplay:10.37,2013-01-03 11:42:00,
2013-01-03 06:47:00,63.8,62.3,30.06,South,184,0.0,0.0,95,0.00,CLR,,0.00,0.0,WeatherDisplay:10.37,2013-01-03 11:47:00,
2013-01-03 06:52:00,63.8,62.3,30.06,South,184,0.0,0.0,95,0.00,CLR,,0.00,0.0,WeatherDisplay:10.37,2013-01-03 11:52:00,
2013-01-03 06:57:00,63.7,61.9,30.07,South,184,0.0,0.0,94,0.00,CLR,,0.00,0.0,WeatherDisplay:10.37,2013-01-03 11:57:00,
2013-01-03 07:02:00,63.6,62.1,30.07,South,184,0.0,0.0,95,0.00,OVC,,0.00,0.0,WeatherDisplay:10.37,2013-01-03 12:02:00,
2013-01-03 07:07:00,63.6,62.1,30.07,South,184,0.0,0.0,95,0.00,OVC,,0.00,0.0,WeatherDisplay:10.37,2013-01-03 12:07:00,
2013-01-03 07:12:00,63.5,62.0,30.07,South,184,0.0,0.0,95,0.00,OVC,,0.00,5.0,WeatherDisplay:10.37,2013-01-03 12:12:00,
2013-01-03 07:18:00,63.4,61.6,30.08,South,184,0.0,0.0,94,0.00,BKN,,0.00,7.0,WeatherDisplay:10.37,2013-01-03 12:18:00,
2013-01-03 07:23:00,63.3,61.5,30.08,South,184,0.0,0.0,94,0.00,BKN,,0.00,11.0,WeatherDisplay:10.37,2013-01-03 12:23:00,
2013-01-03 07:33:00,63.0,61.2,30.08,South,184,0.0,0.0,94,0.00,BKN,,0.00,14.0,WeatherDisplay:10.37,2013-01-03 12:33:00,
2013-01-03 07:38:00,63.0,61.2,30.08,South,184,0.0,0.0,94,0.00,BKN,,0.00,30.0,WeatherDisplay:10.37,2013-01-03 12:38:00,
2013-01-03 07:43:00,63.1,61.6,30.08,South,184,0.0,0.0,95,0.00,FEW,,0.00,56.0,WeatherDisplay:10.37,2013-01-03 12:43:00,
2013-01-03 07:48:00,63.3,61.8,30.08,South,184,0.0,0.0,95,0.00,BKN,,0.00,39.0,WeatherDisplay:10.37,2013-01-03 12:48:00,
2013-01-03 07:53:00,63.6,62.4,30.08,South,184,0.0,0.0,96,0.00,FEW,,0.00,88.0,WeatherDisplay:10.37,2013-01-03 12:53:00,
2013-01-03 07:58:00,64.2,63.0,30.08,South,184,0.0,0.0,96,0.00,FEW,,0.00,79.0,WeatherDisplay:10.37,2013-01-03 12:58:00,
2013-01-03 08:03:00,64.6,63.4,30.09,South,184,0.0,0.0,96,0.00,CLR,,0.00,113.0,WeatherDisplay:10.37,2013-01-03 13:03:00,
2013-01-03 08:08:00,65.5,64.3,30.09,South,184,0.0,0.0,96,0.00,CLR,,0.00,118.0,WeatherDisplay:10.37,2013-01-03 13:08:00,
2013-01-03 08:14:00,66.4,64.9,30.09,South,184,0.0,0.0,95,0.00,CLR,,0.00,144.0,WeatherDisplay:10.37,2013-01-03 13:14:00,
2013-01-03 08:19:00,67.2,65.4,30.09,South,184,0.0,0.0,94,0.00,CLR,,0.00,155.0,WeatherDisplay:10.37,2013-01-03 13:19:00,
2013-01-03 08:24:00,67.7,65.3,30.09,South,184,0.0,0.0,92,0.00,CLR,,0.00,167.0,WeatherDisplay:10.37,2013-01-03 13:24:00,
2013-01-03 08:30:00,68.4,66.0,30.09,South,184,0.0,0.0,92,0.00,CLR,,0.00,183.0,WeatherDisplay:10.37,2013-01-03 13:30:00,
2013-01-03 08:35:00,69.4,66.7,30.09,South,184,0.0,0.0,91,0.00,CLR,,0.00,199.0,WeatherDisplay:10.37,2013-01-03 13:35:00,
2013-01-03 08:40:00,70.6,67.2,30.10,South,184,0.0,0.0,89,0.00,CLR,,0.00,211.0,WeatherDisplay:10.37,2013-01-03 13:40:00,
2013-01-03 08:45:00,71.7,67.3,30.09,South,184,0.0,0.0,86,0.00,CLR,,0.00,229.0,WeatherDisplay:10.37,2013-01-03 13:45:00,
2013-01-03 08:50:00,72.9,67.8,30.10,South,184,0.0,0.0,84,0.00,CLR,,0.00,251.0,WeatherDisplay:10.37,2013-01-03 13:50:00,
2013-01-03 08:55:00,74.1,67.9,30.10,South,184,0.0,0.0,81,0.00,CLR,,0.00,264.0,WeatherDisplay:10.37,2013-01-03 13:55:00,
2013-01-03 09:00:00,75.2,68.2,30.10,South,184,0.0,0.0,79,0.00,CLR,,0.00,278.0,WeatherDisplay:10.37,2013-01-03 14:00:00,
2013-01-03 09:05:00,75.9,67.8,30.10,South,184,0.0,0.0,76,0.00,CLR,,0.00,287.0,WeatherDisplay:10.37,2013-01-03 14:05:00,
2013-01-03 09:10:00,76.5,68.0,30.10,South,184,0.0,0.0,75,0.00,CLR,,0.00,294.0,WeatherDisplay:10.37,2013-01-03 14:10:00,
2013-01-03 09:16:00,77.2,68.3,30.10,South,184,0.0,0.0,74,0.00,CLR,,0.00,316.0,WeatherDisplay:10.37,2013-01-03 14:16:00,
2013-01-03 09:22:00,77.8,68.0,30.11,South,184,0.0,0.0,72,0.00,CLR,,0.00,327.0,WeatherDisplay:10.37,2013-01-03 14:22:00,
2013-01-03 09:27:00,78.3,67.7,30.10,South,184,0.0,0.0,70,0.00,CLR,,0.00,334.0,WeatherDisplay:10.37,2013-01-03 14:27:00,
2013-01-03 09:32:00,78.5,67.1,30.10,South,184,0.6,3.5,68,0.00,CLR,,0.00,306.0,WeatherDisplay:10.37,2013-01-03 14:32:00,
2013-01-03 09:37:00,78.6,67.2,30.11,South,184,0.0,0.0,68,0.00,FEW,,0.00,352.0,WeatherDisplay:10.37,2013-01-03 14:37:00,
2013-01-03 09:42:00,79.0,67.5,30.11,South,184,0.0,0.0,68,0.00,CLR,,0.00,381.0,WeatherDisplay:10.37,2013-01-03 14:42:00,
2013-01-03 09:47:00,79.4,67.5,30.11,SSW,194,0.0,0.0,67,0.00,CLR,,0.00,392.0,WeatherDisplay:10.37,2013-01-03 14:47:00,
2013-01-03 09:53:00,80.4,67.6,30.11,SSW,194,0.0,1.1,65,0.00,CLR,,0.00,401.0,WeatherDisplay:10.37,2013-01-03 14:53:00,
2013-01-03 09:58:00,80.7,67.4,30.10,SSW,194,0.0,2.3,64,0.00,CLR,,0.00,413.0,WeatherDisplay:10.37,2013-01-03 14:58:00,
2013-01-03 10:03:00,80.9,68.5,30.10,SSW,194,0.2,3.5,66,0.00,CLR,,0.00,429.0,WeatherDisplay:10.37,2013-01-03 15:03:00,
2013-01-03 10:11:00,81.6,68.2,30.11,SSW,194,0.0,1.1,64,0.00,CLR,,0.00,450.0,WeatherDisplay:10.37,2013-01-03 15:11:00,
2013-01-03 10:18:00,82.0,68.6,30.11,SSW,194,0.0,1.1,64,0.00,CLR,,0.00,461.0,WeatherDisplay:10.37,2013-01-03 15:18:00,
2013-01-03 10:23:00,82.3,68.4,30.11,SSW,194,0.2,2.0,63,0.00,CLR,,0.00,487.0,WeatherDisplay:10.37,2013-01-03 15:23:00,
2013-01-03 10:28:00,82.0,68.2,30.11,SW,225,0.7,3.5,63,0.00,CLR,,0.00,504.0,WeatherDisplay:10.37,2013-01-03 15:28:00,
2013-01-03 10:33:00,81.9,68.5,30.11,SW,221,1.8,4.6,64,0.00,CLR,,0.00,547.0,WeatherDisplay:10.37,2013-01-03 15:33:00,
2013-01-03 10:38:00,81.9,68.1,30.10,SW,231,1.4,3.5,63,0.00,CLR,,0.00,561.0,WeatherDisplay:10.37,2013-01-03 15:38:00,
2013-01-03 10:44:00,82.0,68.6,30.10,West,276,1.9,5.8,64,0.00,CLR,,0.00,571.0,WeatherDisplay:10.37,2013-01-03 15:44:00,
2013-01-03 10:51:00,81.7,67.9,30.10,South,180,1.4,3.5,63,0.00,CLR,,0.00,619.0,WeatherDisplay:10.37,2013-01-03 15:51:00,
2013-01-03 10:56:00,81.8,69.3,30.10,SSW,192,0.0,0.0,66,0.00,CLR,,0.00,671.0,WeatherDisplay:10.37,2013-01-03 15:56:00,
2013-01-03 11:02:00,82.3,68.9,30.10,SSW,206,3.3,8.1,64,0.00,CLR,,0.00,689.0,WeatherDisplay:10.37,2013-01-03 16:02:00,
2013-01-03 11:07:00,82.1,68.7,30.10,South,187,4.5,8.1,64,0.00,FEW,,0.00,239.0,WeatherDisplay:10.37,2013-01-03 16:07:00,
2013-01-03 11:15:00,81.1,67.8,30.09,WSW,240,1.1,4.6,64,0.00,BKN,,0.00,163.0,WeatherDisplay:10.37,2013-01-03 16:15:00,
2013-01-03 11:22:00,80.1,67.7,30.09,ESE,103,0.8,3.5,66,0.00,BKN,,0.00,185.0,WeatherDisplay:10.37,2013-01-03 16:22:00,
2013-01-03 11:27:00,79.6,68.5,30.09,East,92,0.2,2.0,69,0.00,BKN,,0.00,237.0,WeatherDisplay:10.37,2013-01-03 16:27:00,
2013-01-03 11:34:00,79.6,68.1,30.09,SE,136,1.3,3.5,68,0.00,BKN,,0.00,190.0,WeatherDisplay:10.37,2013-01-03 16:34:00,
2013-01-03 11:40:00,79.4,67.5,30.09,SE,139,0.0,3.5,67,0.00,BKN,,0.00,91.0,WeatherDisplay:10.37,2013-01-03 16:40:00,
2013-01-03 11:45:00,79.2,67.7,30.08,ESE,104,2.6,4.6,68,0.00,BKN,,0.00,183.0,WeatherDisplay:10.37,2013-01-03 16:45:00,
2013-01-03 11:50:00,78.7,67.7,30.08,SE,124,0.1,4.0,69,0.00,BKN,,0.00,202.0,WeatherDisplay:10.37,2013-01-03 16:50:00,
2013-01-03 11:55:00,78.4,67.8,30.08,SSE,150,3.0,6.0,70,0.00,BKN,,0.00,193.0,WeatherDisplay:10.37,2013-01-03 16:55:00,
2013-01-03 12:00:00,78.3,67.7,30.08,SE,137,1.1,3.0,70,0.00,BKN,,0.00,236.0,WeatherDisplay:10.37,2013-01-03 17:00:00,
2013-01-03 12:05:00,78.2,68.0,30.08,SE,137,0.0,0.0,71,0.00,BKN,,0.00,118.0,WeatherDisplay:10.37,2013-01-03 17:05:00,
2013-01-03 12:17:00,78.0,67.8,30.07,SW,217,0.6,3.5,71,0.00,BKN,,0.00,174.0,WeatherDisplay:10.37,2013-01-03 17:17:00,
2013-01-03 12:22:00,77.9,67.7,30.06,SE,129,1.2,3.5,71,0.00,BKN,,0.00,165.0,WeatherDisplay:10.37,2013-01-03 17:22:00,
2013-01-03 12:33:00,78.2,68.4,30.06,SSE,150,1.0,3.5,72,0.00,BKN,,0.00,694.0,WeatherDisplay:10.37,2013-01-03 17:33:00,
2013-01-03 12:38:00,78.6,68.4,30.05,ESE,117,2.5,8.1,71,0.00,SCT,,0.00,178.0,WeatherDisplay:10.37,2013-01-03 17:38:00,
2013-01-03 12:43:00,78.7,68.5,30.05,ENE,78,0.4,3.5,71,0.00,SCT,,0.00,650.0,WeatherDisplay:10.37,2013-01-03 17:43:00,
2013-01-03 12:50:00,79.0,69.2,30.05,ESE,118,1.5,3.5,72,0.00,SCT,,0.00,729.0,WeatherDisplay:10.37,2013-01-03 17:50:00,
2013-01-03 12:55:00,79.6,68.5,30.05,SSE,164,0.9,3.5,69,0.00,SCT,,0.00,287.0,WeatherDisplay:10.37,2013-01-03 17:55:00,
2013-01-03 13:00:00,80.2,69.9,30.04,SSW,205,2.7,5.8,71,0.00,FEW,,0.00,671.0,WeatherDisplay:10.37,2013-01-03 18:00:00,
2013-01-03 13:06:00,80.5,69.0,30.04,South,186,2.0,3.5,68,0.00,FEW,,0.00,174.0,WeatherDisplay:10.37,2013-01-03 18:06:00,
2013-01-03 13:12:00,80.7,69.6,30.04,South,186,1.4,4.6,69,0.00,BKN,,0.00,691.0,WeatherDisplay:10.37,2013-01-03 18:12:00,
2013-01-03 13:17:00,81.0,69.0,30.04,SSW,192,0.5,4.6,67,0.00,SCT,,0.00,218.0,WeatherDisplay:10.37,2013-01-03 18:17:00,
2013-01-03 13:22:00,80.9,68.9,30.03,SSE,162,0.6,3.5,67,0.00,SCT,,0.00,146.0,WeatherDisplay:10.37,2013-01-03 18:22:00,
2013-01-03 13:27:00,80.5,69.0,30.03,SSE,163,0.0,0.0,68,0.00,BKN,,0.00,91.0,WeatherDisplay:10.37,2013-01-03 18:27:00,
2013-01-03 13:32:00,80.3,69.2,30.03,ESE,121,1.8,6.9,69,0.00,BKN,,0.00,547.0,WeatherDisplay:10.37,2013-01-03 18:32:00,
2013-01-03 13:37:00,80.2,69.5,30.03,SE,130,3.6,6.0,70,0.00,SCT,,0.00,617.0,WeatherDisplay:10.37,2013-01-03 18:37:00,
2013-01-03 13:46:00,80.7,69.6,30.03,SSE,159,2.2,6.0,69,0.00,CLR,,0.00,158.0,WeatherDisplay:10.37,2013-01-03 18:46:00,
2013-01-03 13:51:00,80.8,69.7,30.03,SE,140,0.4,2.3,69,0.00,FEW,,0.00,111.0,WeatherDisplay:10.37,2013-01-03 18:51:00,
2013-01-03 13:56:00,80.4,68.9,30.03,South,175,2.2,6.9,68,0.00,BKN,,0.00,181.0,WeatherDisplay:10.37,2013-01-03 18:56:00,
2013-01-03 14:02:00,79.9,68.8,30.02,South,173,3.4,7.0,69,0.00,BKN,,0.00,163.0,WeatherDisplay:10.37,2013-01-03 19:02:00,
2013-01-03 14:07:00,79.4,68.8,30.02,SSW,196,1.8,4.0,70,0.00,BKN,,0.00,127.0,WeatherDisplay:10.37,2013-01-03 19:07:00,
2013-01-03 14:13:00,78.8,68.6,30.02,South,188,1.8,8.1,71,0.00,BKN,,0.00,174.0,WeatherDisplay:10.37,2013-01-03 19:13:00,
2013-01-03 14:19:00,78.8,69.0,30.02,South,177,3.0,6.0,72,0.00,BKN,,0.00,123.0,WeatherDisplay:10.37,2013-01-03 19:19:00,